Main page
Satellite images Climate Cyclones Lightning AirportsFAQ Languages Contact Newsletter About
Weather : Europe Africa North America South America Asia Australia-Oceania Others

chiang-mai-th, Chiang Mai, Chiang Mai International Airport

48327

latitude: , longitude: Thailand, elevation: 18-47N m


METAR: VTCC 220230Z 02005KT 350V100 9999 FEW015 SCT035 25/23 Q1018 NOSIG